Batman, Turkey

6:56 AM EET on February 07, 2016 (GMT +0200)
Batman Air Base

Weather History for LTCJ - October, 2012

Change the Weather History Date:

Monday, October 15, 2012

  Actual Average (LTCC) Record (LTCC)
Temperature  
Mean Temperature 63 °F -  
Max Temperature 82 °F 78 °F 89 °F (2008)
Min Temperature 44 °F 52 °F 42 °F (1999)
Degree Days  
Heating Degree Days 2    
Growing Degree Days 13 (Base 50)    
Moisture  
Dew Point 36 °F    
Average Humidity 43    
Maximum Humidity 81    
Minimum Humidity 13    
Precipitation  
Precipitation 0.00 in - - ()
Sea Level Pressure  
Sea Level Pressure 30.09 in    
Wind  
Wind Speed 3 mph ()    
Max Wind Speed 7 mph    
Max Gust Speed -    
Averages and records for this station are not official NWS values.
T = Trace of Precipitation, MM = Missing Value Source: Averaged Metar Reports

Daily Weather History Graph

Daily Weather History Graph

Search for Another Location

Airport or City:

Trip Planner

Search our weather history database for the weather conditions in past years. The results will help you decide how hot, cold, wet, or windy it might be!

Date:

Astronomy

Oct. 15, 2012 Rise Set
Actual Time 6:24 AM EEST 5:37 PM EEST
Civil Twilight 5:57 AM EEST 6:04 PM EEST
Nautical Twilight 5:27 AM EEST 6:34 PM EEST
Astronomical Twilight 4:56 AM EEST 7:05 PM EEST
Moon 6:07 AM EEST (10/15) 5:23 PM EEST (10/15)
Length of Visible Light 12h 06m
Length of Day
11h 13m
Waning Crescent, 0% of the Moon is Illuminated
Oct 15
Waning Crescent
Oct 15
New
Oct 22
First Quarter
Oct 29
Full
Nov 7
Last Quarter

Hourly Weather History & Observations

Time (EEST) Temp. Windchill Dew Point Humidity Pressure Visibility Wind Dir Wind Speed Gust Speed Precip Events Conditions
12:20 AM 51.8 °F - 39.2 °F 62% 30.06 in - NNE 4.6 mph - N/A   Clear
12:50 AM 51.8 °F - 39.2 °F 62% 30.09 in - NNE 3.5 mph - N/A   Clear
1:20 AM 53.6 °F - 39.2 °F 58% 30.09 in - NNE 3.5 mph - N/A   Clear
1:50 AM 50.0 °F - 39.2 °F 66% 30.09 in - North 3.5 mph - N/A   Clear
2:20 AM 48.2 °F - 39.2 °F 71% 30.09 in - North 3.5 mph - N/A   Clear
3:20 AM 50.0 °F - 39.2 °F 66% 30.09 in - Variable 2.3 mph - N/A   Clear
3:50 AM 48.2 °F - 39.2 °F 71% 30.09 in - Calm Calm - N/A   Clear
4:20 AM 48.2 °F - 39.2 °F 71% 30.09 in - Variable 2.3 mph - N/A   Clear
4:50 AM 46.4 °F 45.2 °F 37.4 °F 71% 30.09 in - North 3.5 mph - N/A   Clear
5:20 AM 48.2 °F - 37.4 °F 66% 30.09 in - NNE 2.3 mph - N/A   Clear
5:50 AM 46.4 °F - 39.2 °F 76% 30.09 in - Variable 1.2 mph - N/A   Clear
6:20 AM 44.6 °F - 39.2 °F 81% 30.09 in - NNW 2.3 mph - N/A   Clear
6:50 AM 46.4 °F - 39.2 °F 76% 30.12 in - Calm Calm - N/A   Clear
7:20 AM 48.2 °F - 39.2 °F 71% 30.12 in - Variable 2.3 mph - N/A   Clear
7:50 AM 51.8 °F - 39.2 °F 62% 30.12 in - Variable 2.3 mph - N/A   Clear
8:20 AM 55.4 °F - 39.2 °F 54% 30.15 in - Variable 1.2 mph - N/A   Clear
8:50 AM 59.0 °F - 39.2 °F 48% 30.15 in - Variable 1.2 mph - N/A   Clear
9:20 AM 62.6 °F - 39.2 °F 42% 30.15 in - Variable 2.3 mph - N/A   Clear
9:50 AM 66.2 °F - 37.4 °F 35% 30.15 in - Variable 2.3 mph - N/A   Clear
10:20 AM 66.2 °F - 37.4 °F 35% 30.12 in - West 3.5 mph - N/A   Clear
10:50 AM 69.8 °F - 35.6 °F 28% 30.12 in - Variable 3.5 mph - N/A   Clear
11:20 AM 73.4 °F - 35.6 °F 25% 30.12 in - WSW 3.5 mph - N/A   Clear
11:50 AM 75.2 °F - 33.8 °F 22% 30.12 in - West 3.5 mph - N/A   Clear
12:20 PM 77.0 °F - 33.8 °F 21% 30.09 in - WSW 4.6 mph - N/A   Clear
12:50 PM 78.8 °F - 30.2 °F 17% 30.09 in - Variable 4.6 mph - N/A   Clear
1:20 PM 80.6 °F - 32.0 °F 17% 30.06 in - Variable 3.5 mph - N/A   Clear
1:50 PM 82.4 °F - 32.0 °F 16% 30.06 in - SW 5.8 mph - N/A   Clear
2:20 PM 82.4 °F - 28.4 °F 14% 30.06 in - WSW 4.6 mph - N/A   Clear
2:50 PM 82.4 °F - 28.4 °F 14% 30.06 in - South 5.8 mph - N/A   Clear
3:20 PM 82.4 °F - 28.4 °F 14% 30.06 in - SW 4.6 mph - N/A   Clear
3:50 PM 82.4 °F - 28.4 °F 14% 30.06 in - Variable 4.6 mph - N/A   Clear
4:20 PM 82.4 °F - 26.6 °F 13% 30.06 in - WSW 5.8 mph - N/A   Clear
4:50 PM 80.6 °F - 28.4 °F 15% 30.06 in - SW 5.8 mph - N/A   Clear
5:20 PM 77.0 °F - 32.0 °F 19% 30.06 in - SSW 4.6 mph - N/A   Clear
5:50 PM 75.2 °F - 32.0 °F 21% 30.06 in - South 3.5 mph - N/A   Clear
6:20 PM 71.6 °F - 32.0 °F 23% 30.06 in - Calm Calm - N/A   Clear
6:50 PM 64.4 °F - 37.4 °F 37% 30.06 in - Calm Calm - N/A   Clear
7:20 PM 62.6 °F - 35.6 °F 37% 30.06 in - Calm Calm - N/A   Clear
7:50 PM 60.8 °F - 35.6 °F 39% 30.09 in - NNE 3.5 mph - N/A   Clear
8:20 PM 60.8 °F - 33.8 °F 36% 30.09 in - NNE 5.8 mph - N/A   Clear
8:50 PM 59.0 °F - 33.8 °F 39% 30.09 in - ENE 5.8 mph - N/A   Clear
9:20 PM 60.8 °F - 32.0 °F 34% 30.09 in - NE 5.8 mph - N/A   Clear
9:50 PM 57.2 °F - 37.4 °F 48% 30.09 in - NE 6.9 mph - N/A   Clear
10:20 PM 55.4 °F - 37.4 °F 51% 30.09 in - NNE 5.8 mph - N/A   Clear
10:50 PM 55.4 °F - 37.4 °F 51% 30.09 in - NE 4.6 mph - N/A   Clear
11:20 PM 55.4 °F - 37.4 °F 51% 30.12 in - NNE 4.6 mph - N/A   Clear
11:50 PM 53.6 °F - 37.4 °F 54% 30.12 in - Calm Calm - N/A   Clear